Location: Deurze
(52.9838°N, 6.6090°E)
Time: 18:43:35
(UTC+00:00)

Nadezhda 1 Rocket - Pass Details

Date: 11 March 2026
Orbit: 940 x 1005 km, 83.0° (Epoch: 20 April)

Event Time Altitude Azimuth Distance (km) Brightness Sun altitude
Rises 21:16:25 0° 348° (NNW) 3,740 7.8 -32.0°
Reaches altitude 10° 21:18:58 10° 347° (NNW) 2,781 7.0 -32.2°
Enters shadow 21:24:39 69° 317° (NW) 1,060 4.2 -32.8°
